Terminal Aerodrome Forecast
Issued by NWS Cleveland, OH

Home | Current Version | Previous Version | Text Only | Print | Product List | Glossary Off
Versions: 1 2 3 4 5 6 7 8 9 10 11 12 13 14 15 16 17 18 19 20 21

000
FTUS41 KCLE 262300
TAFYNG
TAF
KYNG 262335Z 2700/2724 30006KT 6SM BR OVC007
     FM270500 30007KT P6SM OVC015
      TEMPO 2710/2713 OVC009
     FM271700 31010KT P6SM OVC025=

USA.gov is the U.S. government's official web portal to all federal, state and local government web resources and services.